TimeEET,TemperatureF,Dew PointF,Humidity,Sea Level PressureIn,VisibilityMPH,Wind Direction,Wind SpeedMPH,Gust SpeedMPH,PrecipitationIn,Events,Conditions,WindDirDegrees,DateUTC
12:20 AM,50.0,37.4,62,30.24,6.2,NNW,13.8,-,N/A,,Scattered Clouds,340,2012-12-29 22:20:00
12:50 AM,50.0,37.4,62,30.24,6.2,NNW,13.8,-,N/A,,Scattered Clouds,330,2012-12-29 22:50:00
1:20 AM,50.0,37.4,62,30.24,6.2,NNW,11.5,-,N/A,,Scattered Clouds,330,2012-12-29 23:20:00
1:50 AM,50.0,37.4,62,30.24,6.2,North,8.1,-,N/A,,Scattered Clouds,360,2012-12-29 23:50:00
2:20 AM,50.0,37.4,62,30.24,6.2,NNW,10.4,-,N/A,,Scattered Clouds,340,2012-12-30 00:20:00
2:50 AM,50.0,37.4,62,30.24,6.2,NNW,10.4,-,N/A,,Scattered Clouds,340,2012-12-30 00:50:00
3:20 AM,50.0,37.4,62,30.24,6.2,NNW,10.4,-,N/A,,Scattered Clouds,340,2012-12-30 01:20:00
3:50 AM,50.0,37.4,62,30.24,6.2,NNW,10.4,-,N/A,,Scattered Clouds,330,2012-12-30 01:50:00
4:50 AM,50.0,33.8,54,30.24,6.2,NNW,11.5,-,N/A,,Scattered Clouds,340,2012-12-30 02:50:00
5:20 AM,50.0,33.8,54,30.24,6.2,NNW,11.5,-,N/A,,Scattered Clouds,340,2012-12-30 03:20:00
5:50 AM,48.2,33.8,58,30.24,6.2,NNW,9.2,-,N/A,,Scattered Clouds,340,2012-12-30 03:50:00
6:20 AM,48.2,33.8,58,30.24,6.2,NNW,9.2,-,N/A,,Scattered Clouds,340,2012-12-30 04:20:00
7:20 AM,48.2,33.8,58,30.27,6.2,NE,4.6,-,N/A,,Mostly Cloudy,50,2012-12-30 05:20:00
7:50 AM,48.2,33.8,58,30.27,6.2,NNE,6.9,-,N/A,,Mostly Cloudy,20,2012-12-30 05:50:00
8:00 AM,47,33,47,30.28,6,,3.5,,,,Mostly Cloudy,,2012-12-30 06:00:00
8:20 AM,48.2,33.8,58,30.27,6.2,Variable,3.5,-,N/A,,Mostly Cloudy,0,2012-12-30 06:20:00
8:50 AM,48.2,35.6,62,30.27,6.2,North,5.8,-,N/A,,Mostly Cloudy,350,2012-12-30 06:50:00
9:20 AM,48.2,33.8,58,30.27,6.2,North,6.9,-,N/A,,Mostly Cloudy,360,2012-12-30 07:20:00
9:50 AM,50.0,33.8,54,30.27,6.2,North,11.5,-,N/A,,Mostly Cloudy,10,2012-12-30 07:50:00
10:20 AM,48.2,33.8,58,30.30,6.2,North,8.1,-,N/A,,Mostly Cloudy,350,2012-12-30 08:20:00
10:50 AM,50.0,33.8,54,30.30,6.2,North,9.2,-,N/A,,Mostly Cloudy,360,2012-12-30 08:50:00
11:20 AM,50.0,33.8,54,30.30,6.2,North,6.9,-,N/A,,Mostly Cloudy,360,2012-12-30 09:20:00
11:50 AM,50.0,35.6,58,30.30,6.2,North,6.9,-,N/A,,Mostly Cloudy,350,2012-12-30 09:50:00
12:20 PM,50.0,35.6,58,30.27,6.2,NNW,8.1,-,N/A,,Mostly Cloudy,330,2012-12-30 10:20:00
12:50 PM,51.8,33.8,50,30.27,6.2,Variable,3.5,-,N/A,,Mostly Cloudy,0,2012-12-30 10:50:00
1:20 PM,51.8,33.8,50,30.27,6.2,NNE,8.1,-,N/A,,Mostly Cloudy,20,2012-12-30 11:20:00
1:50 PM,51.8,33.8,50,30.24,6.2,North,4.6,-,N/A,,Mostly Cloudy,360,2012-12-30 11:50:00
2:00 PM,51,34,40,30.27,6,North,4.6,,,,Mostly Cloudy,0,2012-12-30 12:00:00
2:20 PM,51.8,33.8,50,30.24,6.2,NNW,8.1,-,N/A,,Mostly Cloudy,340,2012-12-30 12:20:00
2:50 PM,50.0,35.6,58,30.24,6.2,NW,9.2,-,N/A,,Mostly Cloudy,320,2012-12-30 12:50:00
3:20 PM,50.0,37.4,62,30.24,6.2,WNW,10.4,-,N/A,,Mostly Cloudy,300,2012-12-30 13:20:00
3:50 PM,50.0,35.6,58,30.24,6.2,NW,9.2,-,N/A,,Mostly Cloudy,310,2012-12-30 13:50:00
4:20 PM,50.0,35.6,58,30.24,6.2,NNW,8.1,-,N/A,,Mostly Cloudy,330,2012-12-30 14:20:00
4:50 PM,50.0,37.4,62,30.24,6.2,NW,9.2,-,N/A,,Mostly Cloudy,310,2012-12-30 14:50:00
5:20 PM,50.0,37.4,62,30.24,6.2,NW,10.4,-,N/A,,Mostly Cloudy,310,2012-12-30 15:20:00
5:50 PM,48.2,37.4,66,30.24,6.2,WNW,9.2,-,N/A,,Mostly Cloudy,290,2012-12-30 15:50:00
6:20 PM,48.2,37.4,66,30.24,6.2,NW,9.2,-,N/A,,Mostly Cloudy,310,2012-12-30 16:20:00
6:50 PM,48.2,37.4,66,30.27,6.2,NNW,4.6,-,N/A,,Scattered Clouds,330,2012-12-30 16:50:00
7:20 PM,48.2,37.4,66,30.27,6.2,NNW,5.8,-,N/A,,Scattered Clouds,330,2012-12-30 17:20:00
7:50 PM,44.6,35.6,71,30.27,6.2,Variable,3.5,-,N/A,,Scattered Clouds,0,2012-12-30 17:50:00
8:00 PM,45,36,62,30.29,6,,3.5,,,,Partly Cloudy,,2012-12-30 18:00:00
8:20 PM,44.6,35.6,71,30.27,6.2,Calm,Calm,-,N/A,,Scattered Clouds,0,2012-12-30 18:20:00
8:50 PM,42.8,37.4,81,30.27,6.2,Calm,Calm,-,N/A,,Partly Cloudy,0,2012-12-30 18:50:00
9:20 PM,42.8,35.6,76,30.27,6.2,Calm,Calm,-,N/A,,Partly Cloudy,0,2012-12-30 19:20:00
9:50 PM,41.0,35.6,81,30.27,6.2,Calm,Calm,-,N/A,,Partly Cloudy,0,2012-12-30 19:50:00
10:20 PM,39.2,35.6,87,30.27,6.2,Calm,Calm,-,N/A,,Partly Cloudy,0,2012-12-30 20:20:00
10:50 PM,39.2,35.6,87,30.27,6.2,East,3.5,-,N/A,,Partly Cloudy,90,2012-12-30 20:50:00
11:20 PM,39.2,35.6,87,30.27,6.2,SE,4.6,-,N/A,,Partly Cloudy,130,2012-12-30 21:20:00
11:50 PM,37.4,33.8,87,30.24,6.2,East,5.8,-,N/A,,Partly Cloudy,100,2012-12-30 21:50:00